Location: Newark
(13.8117°N, 3.6025°W)
Time: 00:32:33
(UTC+00:00)

Courier 1B Rocket - All Passes

Search period start: 21 August 2019 00:00
Search period end: 31 August 2019 00:00
Orbit: 920 x 1202 km, 28.3° (Epoch: 19 August)

Date Brightness Start Highest point End Pass type
(mag) Time Alt. Az. Time Alt. Az. Time Alt. Az.
21 Aug - 01:29:04 10° WSW 01:36:06 79° SSE 01:43:40 10° ENE visible
21 Aug - 03:23:15 10° W 03:30:11 43° NNW 03:37:29 10° NE visible
21 Aug - 05:18:46 10° WNW 05:25:08 27° N 05:31:36 10° NE visible
21 Aug - 07:13:34 10° NW 07:20:21 31° N 07:27:03 10° ENE daylight
21 Aug - 09:07:19 10° WNW 09:15:00 60° NNE 09:22:20 10° ESE daylight
21 Aug - 11:01:31 10° WNW 11:08:49 50° SSW 11:15:40 10° SE daylight
21 Aug - 12:59:14 10° WSW 13:02:15 13° SSW 13:05:13 10° S daylight
21 Aug - 22:38:24 10° S 22:41:37 14° SSE 22:44:54 10° ESE night (unlit)
22 Aug - 00:28:19 10° SW 00:34:57 54° SSE 00:42:05 10° ENE night (unlit)
22 Aug - 02:21:44 10° W 02:28:43 55° NNW 02:36:11 10° NE visible
22 Aug - 04:16:58 10° WNW 04:23:24 30° N 04:30:02 10° NE visible
22 Aug - 06:12:08 10° NW 06:18:37 28° N 06:25:07 10° ENE daylight
22 Aug - 08:06:03 10° NW 08:13:31 46° NNE 08:20:47 10° E daylight
22 Aug - 09:59:52 10° WNW 10:07:37 73° SSW 10:14:56 10° SE daylight
22 Aug - 11:55:42 10° W 12:01:06 22° SSW 12:06:18 10° SSE daylight
22 Aug - 23:27:56 10° SSW 23:33:54 35° SSE 23:40:15 10° E night (unlit)
23 Aug - 01:20:28 10° WSW 01:27:23 74° NNW 01:34:51 10° ENE visible
23 Aug - 03:15:13 10° WNW 03:21:44 34° NNW 03:28:35 10° NE visible
23 Aug - 05:10:35 10° NW 05:16:50 27° N 05:23:13 10° NE visible
23 Aug - 07:04:48 10° NW 07:11:55 37° NNE 07:19:00 10° E daylight
23 Aug - 08:58:26 10° WNW 09:06:18 82° NNE 09:13:52 10° ESE daylight
23 Aug - 10:53:15 10° W 10:59:58 33° SSW 11:06:21 10° SSE daylight
23 Aug - 22:27:59 10° SSW 22:32:53 22° SSE 22:38:00 10° E night (unlit)
24 Aug - 00:19:28 10° WSW 00:26:11 80° SSE 00:33:27 10° ENE night (unlit)
24 Aug - 02:13:36 10° W 02:20:11 41° NNW 02:27:13 10° NE visible
24 Aug - 04:08:57 10° WNW 04:15:05 27° N 04:21:25 10° NE visible
24 Aug - 06:03:32 10° NW 06:10:15 31° NNE 06:17:03 10° ENE daylight
24 Aug - 07:57:08 10° WNW 08:04:53 61° NNE 08:12:29 10° ESE daylight
24 Aug - 09:51:18 10° WNW 09:58:46 50° SSW 10:05:55 10° SE daylight
24 Aug - 11:48:56 10° WSW 11:52:21 14° SSW 11:55:41 10° S daylight
24 Aug - 21:28:56 10° S 21:31:52 13° SSE 21:34:50 10° ESE night (unlit)
24 Aug - 23:18:46 10° SW 23:25:07 54° SSE 23:31:56 10° ENE night (unlit)
25 Aug - 01:12:09 10° W 01:18:47 53° NNW 01:25:56 10° NE visible
25 Aug - 03:07:17 10° WNW 03:13:22 28° N 03:19:47 10° NE visible
25 Aug - 05:02:13 10° NW 05:08:32 28° N 05:15:00 10° ENE visible
25 Aug - 06:55:57 10° NW 07:03:23 47° NNE 07:10:50 10° E daylight
25 Aug - 08:49:41 10° WNW 08:57:30 72° SSW 09:05:06 10° SE daylight
25 Aug - 10:45:28 10° W 10:51:07 22° SSW 10:56:35 10° SSE daylight
25 Aug - 22:18:24 10° SSW 22:24:08 35° SSE 22:30:11 10° E night (unlit)
26 Aug - 00:10:56 10° WSW 00:17:31 71° NNW 00:24:38 10° ENE night (unlit)
26 Aug - 02:05:38 10° WNW 02:11:46 32° NNW 02:18:19 10° NE visible
26 Aug - 04:00:49 10° NW 04:06:48 26° N 04:13:01 10° NE visible
26 Aug - 05:54:48 10° NW 06:01:48 37° NNE 06:08:57 10° E daylight
26 Aug - 07:48:18 10° WNW 07:56:09 84° NNE 08:03:56 10° ESE daylight
26 Aug - 09:43:02 10° W 09:49:54 34° SSW 09:56:33 10° SSE daylight
26 Aug - 21:18:26 10° SSW 21:23:10 22° SSE 21:28:02 10° E night (unlit)
26 Aug - 23:09:57 10° WSW 23:16:24 82° SSE 23:23:19 10° ENE night (unlit)
27 Aug - 01:04:03 10° W 01:10:18 39° NNW 01:16:59 10° NE visible
27 Aug - 02:59:19 10° WNW 03:05:06 26° N 03:11:10 10° NE visible
27 Aug - 04:53:39 10° NW 05:00:10 31° NNE 05:06:54 10° ENE visible
27 Aug - 06:47:05 10° WNW 06:54:44 62° NNE 07:02:29 10° ESE daylight
27 Aug - 08:41:09 10° WNW 08:48:39 49° SSW 08:56:01 10° SE daylight
27 Aug - 10:38:41 10° WSW 10:42:21 14° SSW 10:45:58 10° S daylight
27 Aug - 20:19:20 10° S 20:22:10 13° SSE 20:25:00 10° ESE visible
27 Aug - 22:09:14 10° SW 22:15:24 54° SSE 22:21:53 10° ENE night (unlit)
28 Aug - 00:02:39 10° W 00:08:58 50° NNW 00:15:44 10° NE night (unlit)
28 Aug - 01:57:44 10° WNW 02:03:28 27° N 02:09:30 10° NE visible
28 Aug - 03:52:29 10° NW 03:58:30 27° N 04:04:48 10° ENE visible
28 Aug - 05:45:59 10° NW 05:53:15 47° NNE 06:00:45 10° E daylight
28 Aug - 07:39:35 10° WNW 07:47:20 71° SSW 07:55:06 10° SE daylight
28 Aug - 09:35:18 10° W 09:41:03 22° SSW 09:46:43 10° SSE daylight
28 Aug - 21:08:50 10° SSW 21:14:27 35° SSE 21:20:15 10° E visible
28 Aug - 23:01:27 10° WSW 23:07:46 69° NNW 23:14:33 10° ENE night (unlit)
29 Aug - 00:56:08 10° WNW 01:01:55 30° NNW 01:08:04 10° NE night (unlit)
29 Aug - 02:51:12 10° NW 02:56:50 25° N 03:02:46 10° NE visible
29 Aug - 04:44:57 10° NW 04:51:43 37° NNE 04:58:47 10° E visible
29 Aug - 06:38:17 10° WNW 06:46:00 85° NNE 06:53:52 10° ESE daylight
29 Aug - 08:32:56 10° W 08:39:47 33° SSW 08:46:34 10° SSE daylight
29 Aug - 20:08:49 10° SSW 20:13:30 22° SSE 20:18:14 10° E visible
29 Aug - 22:00:26 10° WSW 22:06:43 83° SSE 22:13:19 10° ENE night (unlit)
29 Aug - 23:54:36 10° W 00:00:31 37° NNW 00:06:49 10° NE night (unlit)
30 Aug - 01:49:48 10° NW 01:55:12 24° N 02:00:54 10° NE visible
30 Aug - 03:43:56 10° NW 03:50:09 30° NNE 03:56:41 10° ENE visible
30 Aug - 05:37:10 10° WNW 05:44:36 63° NNE 05:52:21 10° ESE visible
30 Aug - 07:31:07 10° WNW 07:38:29 48° SSW 07:45:58 10° SE daylight
30 Aug - 09:28:34 10° WSW 09:32:19 14° SSW 09:36:02 10° S daylight
30 Aug - 19:09:33 10° S 19:12:29 13° SSE 19:15:25 10° ESE visible
30 Aug - 20:59:40 10° SW 21:05:45 55° SSE 21:12:00 10° ENE visible
30 Aug - 22:53:11 10° W 22:59:15 48° NNW 23:05:40 10° NE night (unlit)
